Location: Augustenthal
(51.7167°N, 10.2833°E)
Time: 03:30:38
(UTC+00:00)

ISS - Pass Details

Date: 18 May 2021
Orbit: 417 x 422 km, 51.6° (Epoch: 14 June)

Event Time Altitude Azimuth Distance (km) Brightness Sun altitude
Rises 22:29:20 0° 275° (W) 2,369 0.3 -17.8°
Reaches altitude 10° 22:31:26 10° 275° (W) 1,505 -0.8 -17.9°
Maximum altitude 22:34:49 87° 188° (S) 427 -3.9 -18.0°
Enters shadow 22:36:30 28° 99° (E) 835 -2.5 -18.0°
